Location: ????
(30.1475°N, 31.1342°E)
Time: 11:50:16
(UTC+00:00)

CZ-2C R/B - Pass Details

Date: 27 September 2022
Orbit: 784 x 870 km, 98.3° (Epoch: 26 November)

Event Time Altitude Azimuth Distance (km) Brightness Sun altitude
Rises 01:30:27 0° 144° (SE) 3,259 6.0 -29.8°
Reaches altitude 10° 01:32:55 10° 135° (SE) 2,337 5.3 -29.3°
Maximum altitude 01:37:32 34° 72° (ENE) 1,281 4.1 -28.4°
Drops below altitude 10° 01:42:12 10° 8° (N) 2,374 5.3 -27.4°
Sets 01:44:43 0° 360° (N) 3,319 6.0 -26.9°
